Flag for China

Past Weather in Zhengzhou, Henan, China — Yesterday and Last 2 Weeks

Now
68 °F

Fog.


Feels Like: 68 °F
Forecast: 79 / 65 °F
Wind: 3 mph from East

Location: Zhengzhou Airport
Current Time: Sep 27, 2020 at 3:25:32 am
Latest Report: Sep 27, 2020 at 3:00 am
Visibility: 2 mi
Pressure30.04 "Hg
Humidity: 78%
Dew Point: 61 °F
Location of ZhengzhouLocation

Past Weather in Zhengzhou — Graph

°F

Zhengzhou Temperature Yesterday

Maximum temperature yesterday: 77 °F (at 12:00 pm)
Minimum temperature yesterday: 66 °F (at 6:00 am)
Average temperature yesterday: 73 °F

High & Low Weather Summary for the Past Weeks

 TemperatureHumidityPressure
High91 °F (Sep 16, 11:00 am)100% (Sep 24, 6:00 am)30.12 "Hg (Sep 24, 6:00 am)
Low55 °F (Sep 18, 6:00 am)18% (Sep 18, 4:00 pm)29.74 "Hg (Sep 15, 2:00 pm)
Average73 °F61%29.99 "Hg
* Reported Sep 12 2:00 am — Sep 27 2:00 am, Zhengzhou. Weather by CustomWeather, © 2020

Note: Actual official high and low records may vary slightly from our data, if they occured in-between our weather recording intervals... More about our weather records

Zhengzhou Weather History for the Previous 24 Hours

Scroll right to see more
 ConditionsComfort  
Time TempWeatherWind HumidityBarometerVisibility
2:00 am
Sun, Sep 27
70 °FHaze.6 mph78%30.04 "Hg2 mi
1:00 am70 °FHaze.3 mph73%30.04 "Hg2 mi
12:00 am72 °FHaze.6 mph69%30.07 "Hg2 mi
11:00 pm
Sat, Sep 26
73 °FHaze.3 mph65%30.07 "Hg2 mi
10:00 pm73 °FHaze.6 mph65%30.04 "Hg2 mi
9:00 pm75 °FHaze.6 mph61%30.04 "Hg2 mi
8:00 pm75 °FHaze.6 mph61%30.04 "Hg2 mi
7:00 pm75 °FHaze.3 mph61%30.01 "Hg2 mi
6:00 pm77 °FHaze.6 mph54%30.01 "Hg2 mi
5:00 pm77 °FHaze.3 mph51%30.01 "Hg2 mi
4:00 pm77 °FHaze.3 mph51%30.01 "Hg2 mi
3:00 pm77 °FHaze.6 mph51%30.01 "Hg2 mi
2:00 pm77 °FHaze.3 mph51%30.04 "Hg2 mi
1:00 pm75 °FHaze.3 mph57%30.04 "Hg2 mi
12:00 pm77 °FHaze.8 mph54%30.07 "Hg2 mi
11:00 am75 °FHaze.8 mph57%30.07 "Hg2 mi
10:00 am72 °FHaze.10 mph65%30.09 "Hg2 mi
9:00 am70 °FHaze.6 mph69%30.07 "Hg2 mi
8:00 am68 °FHaze.6 mph73%30.07 "Hg2 mi
7:00 am66 °FFog.3 mph78%30.04 "Hg2 mi
6:00 am66 °FFog.3 mph78%30.04 "Hg3 mi
5:00 am68 °FHaze.1 mph73%30.04 "Hg3 mi
4:00 am68 °FHaze.6 mph73%30.04 "Hg3 mi
3:00 am68 °FHaze.6 mph73%30.04 "Hg3 mi
Weather by CustomWeather, © 2020

See weather overview